Regional Weather Roundup
Issued by NWS

Home | Current Version | Previous Version | Text Only | Print | Product List | Glossary Off
Versions: 1 2 3 4 5 6 7 8 9 10 11 12 13 14 15 16 17 18 19 20 21 22 23 24 25 26 27 28 29 30 31 32 33 34 35 36 37 38 39 40 41 42 43 44 45 46 47 48 49 50

000
ASUS43 KFSD 220210
RWRSD

WEATHER ROUNDUP FOR SOUTH DAKOTA
NATIONAL WEATHER SERVICE SIOUX FALLS SD
900 PM CDT SAT APR 21 2018

NOTE: "FAIR" INDICATES FEW OR NO CLOUDS BELOW 12,000 FEET WITH NO
SIGNIFICANT WEATHER AND/OR OBSTRUCTIONS TO VISIBILITY.


SDZ001>005-009-010-012>017-220300-
NORTHWEST AND NORTH CENTRAL SOUTH DAKOTA

CITY           SKY/WX    TMP DP  RH WIND       PRES   REMARKS
BUFFALO          N/A     48  36  63 S18       30.00R
FAITH            N/A     44  38  79 S18       30.13S
MOBRIDGE       MOCLDY    47  36  65 S9        30.19R
$$

SDZ012>016-024>037-041>051-057-063-072>074-220300-
SOUTHWEST AND SOUTH CENTRAL SOUTH DAKOTA

CITY           SKY/WX    TMP DP  RH WIND       PRES   REMARKS
RAPID CTY ARPT CLEAR     44  36  73 S16       30.12S
PIERRE         PTCLDY    43  38  82 SE13      30.21F
CUSTER         CLOUDY    37  32  82 VRB6      30.13R
ELLSWORTH AFB  CLEAR    N/A N/A N/A S18G25    30.11F
PHILIP         PTCLDY    45  38  76 SE10G21   30.18S
PINE RIDGE     PTCLDY    42  37  82 SE8       30.18R
SPEARFISH      FAIR      50  39  66 CALM      30.06R
WINNER         CLOUDY    42  35  76 E6        30.26R
$$

SDZ004>011-016>023-039-040-220300-
NORTHEAST SOUTH DAKOTA

CITY           SKY/WX    TMP DP  RH WIND       PRES   REMARKS
ABERDEEN       PTCLDY    44  33  65 S8        30.27R
WATERTOWN      CLEAR     42  34  73 S6        30.29R
BROOKINGS      CLOUDY    42  33  70 SE9       30.29F
SISSETON         N/A     48  39  71 S12       30.27S
$$

SDZ017-020-022-023-036>040-048>070-220300-
SOUTHEAST SOUTH DAKOTA

CITY           SKY/WX    TMP DP  RH WIND       PRES   REMARKS
SIOUX FALLS    CLOUDY    43  35  73 E7        30.30R
HURON          CLEAR     44  34  67 S3        30.28R
CHAMBERLAIN    PTCLDY    41  39  92 CALM      30.26S
MITCHELL       MOCLDY    43  37  79 E5        30.28R
YANKTON        CLOUDY    50  36  58 E7        30.28R
$$

ABBREVIATIONS USED IN REMARKS
   TC - TEMPERATURE IN CELSIUS
  WCI - WIND CHILL INDEX
   HX - HEAT INDEX
  VSB - VISIBILITY





USA.gov is the U.S. government's official web portal to all federal, state and local government web resources and services.